Regional Weather Roundup
Issued by NWS

Home | Current Version | Previous Version | Text Only | Print | Product List | Glossary On
Versions: 1 2 3 4 5 6 7 8 9 10 11 12 13 14 15 16 17 18 19 20 21 22 23 24 25 26 27 28 29 30 31 32 33 34 35 36 37 38 39 40 41 42 43 44 45 46 47 48 49 50
000
ASUS45 KCYS 241110
RWRWY

WYOMING REGIONAL WEATHER ROUNDUP
NATIONAL WEATHER SERVICE CHEYENNE WY
500 AM MDT THU JUL 24 2014

NOTE:  "FAIR" INDICATES FEW OR NO CLOUDS BELOW 12,000 FEET
WITH NO SIGNIFICANT WEATHER AND/OR OBSTRUCTIONS TO VISIBILITY.

WYZ001-241200-
YELLOWSTONE NATIONAL PARK

CITY           SKY/WX    TMP DP  RH WIND       PRES   REMARKS
LK YELLOWSTONE   N/A     43  38  82 NW3       30.26R
W YELLOWSTONE  NOT AVBL

$$
WYZ002>013-054>058-071-098>099-241200-
NORTHERN WYOMING

CITY           SKY/WX    TMP DP  RH WIND       PRES   REMARKS
JACKSON        CLEAR     48  39  71 N7        30.15R
CODY           NOT AVBL
GREYBULL       PTCLDY    71  41  33 SE5       29.87F
WORLAND        PTCLDY    75  42  30 CALM      29.91R
SHERIDAN       MOCLDY    71  48  43 W9        29.84F
BUFFALO        CLOUDY    85  36  17 W28G35    29.93F
GILLETTE       MOCLDY    75  51  43 S17       29.91S
HULETT         FAIR      72  59  64 MISG      29.91
NEWCASTLE      FAIR      73  57  56 SE10      29.97

$$
WYZ014>020-022>026-101>103-241200-
CENTRAL WYOMING

CITY           SKY/WX    TMP DP  RH WIND       PRES   REMARKS
BIG PINEY      CLEAR     50  46  86 NW5       30.22S
PINEDALE       SUNNY     54  46  76 CALM      30.23S
DUBOIS         FAIR      57  36  44 NW7       30.19S
LANDER         MOCLDY    75  39  27 SW12      30.05S
RIVERTON       MOCLDY    76  40  27 S8        30.05S
CASPER         MOCLDY    74  39  28 SW13      30.07R
DOUGLAS        MOCLDY    69  45  41 NE5       30.03F

$$
WYZ021-027>030-104>119-241200-
SOUTHERN WYOMING

CITY           SKY/WX    TMP DP  RH WIND       PRES   REMARKS
EVANSTON       CLEAR     66  41  40 SW14      30.22S
KEMMERER       MOSUNNY   59  39  47 NW3       30.24R
FORT BRIDGER   FAIR      75  37  24 SW18G25   30.24R
ROCK SPRINGS   PTCLDY    69  35  28 SW10      30.21S
DIXON          FAIR      60  43  53 CALM      30.28R
RAWLINS        MOCLDY    73  37  27 SW14G23   30.24S
SARATOGA       FAIR      64  41  42 SE14      30.29S
LARAMIE        CLOUDY    66  41  40 SW10      30.29R
CHEYENNE       MOCLDY    64  48  56 SW7       30.17F
TORRINGTON     PTCLDY    66  58  75 SE9       30.00F
PINE BLUFFS    FAIR      61  52  72 SW7       30.12S

$$


USA.gov is the U.S. government's official web portal to all federal, state and local government web resources and services.